Location: G?julap?du
(16.5372°N, 81.0979°E)
Time: 23:25:45
(UTC+00:00)

Cosmos 2082 - Pass Details

Date: 14 April 2026
Orbit: 834 x 852 km, 71.0° (Epoch: 9 May)

Event Time Altitude Azimuth Distance (km) Brightness Sun altitude
Rises 12:59:46 0° 342° (NNW) 3,372 7.3 -2.9°
Reaches altitude 10° 13:02:12 10° 341° (NNW) 2,437 6.6 -3.5°
Maximum altitude 13:07:47 82° 255° (WSW) 843 3.9 -4.8°
Drops below altitude 10° 13:13:22 10° 167° (SSE) 2,435 5.9 -6.1°
Sets 13:15:48 0° 166° (SSE) 3,370 6.6 -6.7°
